OPS 4682 DEB, 18784

Orbit data source: Space-Track

OPS 4682 DEB, 18784 is space debris in LEO originally from a launch on Sat, 03 Apr 1965 UTC launched from the Air Force Western Test Range (AFWTR). Debris objects in space refer to the collection of defunct objects orbiting the Earth. Examples of debris include non-operational satellites, rocket bodies, and fragments generated from explosions, collisions, or faulty payload assembly.

Loading next visibility...
Identifier
18784, 1965-027AL
Orbit
LEO
Last TLE update
3 days ago
Origin
Manufacturer
Unknown
Mission
Spacecraft
Bus & Motor
Unknown
Mass
Unknown
Launch date (UTC)
1965-04-03 (60 years ago)
Launch vehicle
Unknown
Launch site
Air Force Western Test Range (AFWTR)
Object type
Payload
Rocket body
Debris
Shape & HBR
Unknown
Radar Cross Section
Small (<0.1 m²)

Expand to show TLE details & history

TLE from 3 days ago
0 OPS 4682 DEB
1 18784U 65027AL  25166.81149626  .00000377  00000-0  12797-2 0  9990
2 18784  90.2456 355.9972 0040081   4.6318   7.3816 12.96947915754892
Epoch: 2025-06-15T19:28Z
TLE epoch observation values (Epoch: 2025-06-15T19:28:33.276Z)
Latitude
12.03036°
Longitude
159.47524°
Altitude
1,245.775 km
Speed
7.247 km/s
True Right ascension
23h 43m 46s
True Declination
11° 57' 54"
Sunlit
Object was in daylight at epoch
Visualization orbit readout
Latitude
-16.56123°
Longitude
-20.46793°
Altitude
1,309.222 km
Speed
7.188 km/s
Apparent Right ascension
09h 12m 49s
Apparent Declination
-38° 59' 31"
Sunlit
Object is in daylight
Visualization observer readout
Local Sidereal Time
16:43:57
Azimuth
248.002° W
Elevation
-39.387°
Doppler factor
1
Orbital elements
Apogee altitude
1,301.859 km
Perigee altitude
1,240.54 km
Semi-major axis
7,649.337 km
Eccentricity
0.00401
Inclination
90.2456°
RAAN
355.9972°
Arg. of periapsis
4.6318°
True anomaly
Unknown
Mean anomaly
7.3816°
Eccentric anomaly
Unknown
Mean motion
3.2442 °/min
Orbital period
110.97 mins
BSTAR
0.0012797
Loading maneuver chart data...
Loading SW <> Apogee altitude chart data...
Loading historical data...
Loading historical data...
Loading historical data...
Loading historical data...
Loading historical data...
Loading historical data...
Loading historical data...

OPS 4682 DEB Visibility forecast

Observer location: undefined°, undefined°

Span
Click to sort rows by Start time (UTC) header in descending order
Start Az.
Max El. time (UTC)
Max El. Az.
Max El.
End time (UTC)
End Az.
14 mins2025-06-19 12:22:33.632Z161.83° S2025-06-19 12:29:33.632Z85.641° E42.199°2025-06-19 12:36:33.632Z4.172° NNE
10 mins2025-06-19 14:16:33.632Z239.563° WSW2025-06-19 14:20:33.632Z276.812° WNW20.854°2025-06-19 14:26:33.632Z330.18° NNW
12 mins2025-06-20 00:01:33.632Z21.044° NNE2025-06-20 00:06:33.632Z77.276° E35.827°2025-06-20 00:13:33.632Z156.244° SSE
11 mins2025-06-20 01:52:33.632Z336.331° NNW2025-06-20 01:57:33.632Z282.962° WNW29.004°2025-06-20 02:03:33.632Z226.458° WSW
|